Regional Weather Roundup
Issued by NWS Charleston, SC

Current Version | Previous Version | Graphics & Text | Print | Product List | Glossary On
Versions: 1 2 3 4 5 6 7 8 9 10 11 12 13 14 15 16 17 18 19 20 21 22 23 24 25 26 27 28 29 30 31 32 33 34 35 36 37 38 39 40 41 42 43 44 45 46 47 48 49 50
508
ASUS42 KCHS 082127
RWRCHS

REGIONAL WEATHER ROUNDUP
NATIONAL WEATHER SERVICE CHARLESTON SC
400 PM EST THU DEC 08 2016

NOTE: "FAIR" INDICATES FEW OR NO CLOUDS BELOW 12,000 FEET WITH NO
SIGNIFICANT WEATHER AND/OR OBSTRUCTIONS TO VISIBILITY.

NOT ALL STATIONS ARE QUALITY CONTROLLED. USE DATA WITH CAUTION...
ESPECIALLY DEWPOINT OBSERVATIONS.

SCZ027-030-031-034>040-042>050-082200-
...SOUTHEAST SOUTH CAROLINA...

CITY           SKY/WX    TMP DP  RH WIND       PRES   REMARKS
N CHARLESTON   PTSUNNY   64  45  49 NW12      30.09R
WATERFRONT PRK   N/A     66  50  56 NW7       30.06R
MOUNT PLEASANT FAIR      63  50  63 N7        30.10R
JOHNS ISLAND   FAIR      64  48  55 W12       30.10R
PINOPOLIS        N/A     61  48  63 NW13      30.00R
MONCKS CORNER  FAIR      59  43  55 NW3       30.11R
SUMMERVILLE    FAIR      61  46  59 NW9G17    30.12R
BEAUFORT MCAS  MOSUNNY   63  44  50 W15       30.12R
BEAUFORT ARPT  FAIR      61  45  55 NW14G20   30.12R
HILTON HEAD IS SUNNY     64  45  48 W12       30.11R
WALTERBORO     CLEAR     61  45  55 NW10      30.14R
ALLENDALE      FAIR      59  45  58 VRB5G12   30.14R

...SOUTHERN MIDLANDS AND PEE DEE...

CITY           SKY/WX    TMP DP  RH WIND       PRES   REMARKS
GEORGETOWN     MOCLDY    59  46  63 NW7       30.11R
KINGSTREE      FAIR      55  45  67 W7        30.12R
ORANGEBURG     MOSUNNY   58  44  60 N7        30.13S
BARNWELL       NOT AVBL
AIKEN          CLOUDY    55  43  62 NW9       30.19R
MANNING        FAIR      55  45  67 NW8       30.13R
COLUMBIA       CLOUDY    58  32  37 NW13      30.15R
SUMTER         MOSUNNY   58  42  55 NW12      30.11R
FLORENCE       PTSUNNY   57  43  59 N12       30.11R
MYRTLE BEACH   MOSUNNY   61  46  59 N14       30.10R
N MYRTLE BEACH MOSUNNY   58  49  72 N7        30.07R

$$

GAZ063-065-086>088-099>101-113>116-118-119-134>141-150-082200-
...SOUTHEAST GEORGIA...

CITY           SKY/WX    TMP DP  RH WIND       PRES   REMARKS
SAVANNAH ARPT  CLOUDY    63  39  41 NW15      30.13R
HUNTER AAF     SUNNY     63  47  56 NW14      30.10R
FORT STEWART   MOSUNNY   62  39  42 NW7       30.12R
STATESBORO     SUNNY     61  42  49 N10G17    30.15R
SYLVANIA       CLEAR    N/A N/A N/A N9        30.16R
CLAXTON        FAIR      62  41  46 W8G17     30.16R

...CSRA...CENTRAL AND FAR SOUTHEAST GEORGIA...

CITY           SKY/WX    TMP DP  RH WIND       PRES   REMARKS
THOMSON        SUNNY     53  31  42 NW9       30.26R
AUGUSTA-BUSH   SUNNY     61  36  39 N17       30.15R
AUGUSTA-DANIEL SUNNY     59  34  39 NW14G20   30.17R
SWAINSBORO     FAIR      59  32  36 NW13G21   30.19R
VIDALIA        CLOUDY    61  41  48 NW14      30.18R
EASTMAN        FAIR      59   7  12 N9G16     30.23R
HAZLEHURST     FAIR      62  37  40 N12       30.18R
ALMA           NOT AVBL
WAYCROSS       SUNNY     64  42  44 N12G17    30.17R
JESUP          FAIR      63  45  51 N10G16    30.16R
BAXLEY         FAIR      63  43  48 N9        30.17R
BRUNSWICK      MOSUNNY   63  50  63 W6        30.15R
SAINT SIMONS   MOSUNNY   64  44  48 NW8       30.13R

$$

SCZ027-028-034-036>038-045-046-048>050-GAZ119-141-082200-
...LAKE AND SUPPLEMENTAL COASTAL OBSERVATIONS...

STATION/POSITION TIME  TEMP    WIND        PRES    WAVE   SWELL
                       AIR SEA DIR/SP/G            HT/PER HT/PER/DIR
                 (UTC) (F)     (DEG/KT/KT) (MB)    (FT/S) (FT/S/D)
WINYAH BAY       2030   61     300/  8     1018.0R
LAKE MURRAY      2050   52     330/  5/ 10 1020.7R
ACE BASIN NERRS  2045   62     300/  4     1019.0R
FORT PULASKI     2100   62 62  310/ 17/ 21 1020.1
SAPELO ISLAND    2100   65     320/ 14     1020.0

$$

ANZ835-935-AMZ111-154-330-350-352-354-370-450-454-472-082200-
...C-MAN AND BUOY OBSERVATIONS...

STATION/POSITION TIME  TEMP    WIND        PRES    WAVE   SWELL
                       AIR SEA DIR/SP/G            HT/PER HT/PER/DIR
                 (UTC) (F)     (DEG/KT/KT) (MB)    (FT/S) (FT/S/D)
BUOY 41004       2050   61 74  310/  8/ 12 1018.0R   3/ 4   2/240/ 4
BUOY 41008       2050   62 65  300/ 14/ 17 1019.1R   2/ 3   2/ 30/11
FOLLY BEACH CMAN 2100   64     290/  9/ 12 1019.5R
CAPERS NEARSHORE 2108   62 62  340/ 12/ 14 1018.6R
FRIPP NEARSHORE  2108   62 62  320/ 14/ 17 1019.4R


STATION/POSITION TIME  TEMP    WIND        PRES    WAVE   SWELL
                       AIR SEA DIR/SP/G            HT/PER HT/PER/DIR
                 (UTC) (F)     (DEG/KT/KT) (MB)    (FT/S) (FT/S/D)
5E ST. MARYS GA  2100      66                N/A     1/11
FRYING PAN BUOY  2110   60 74  300/ 14/ 19 1018.0
BUOY 41025       2050   58 77  310/ 21/ 25 1015.5R   5/10   3/ 90/10
CAPE LOOKOUT NC  2100   55     330/ 12/ 13 1016.8R
BUOY 41002       2050   73 74  290/ 10/ 14 1016.3R   5/ 9   3/ 30/ 9
BUOY 41010       NOT AVBL
ST AUGUSTINE FL  2100   63 67   50/  5/  6 1020.3R


$$




USA.gov is the U.S. government's official web portal to all federal, state and local government web resources and services.